[[[{"header":{"parameterUnit":"kt","parameterCategory":2,"dx":1,"dy":1,"la1":30.253999710083008,"la2":30.299108505249023,"lo1":-89.0895004272461,"lo2":-89.04439544677734,"nx":28,"ny":28,"refTime":"2022-10-08T21:00:00:Z","depth":0,"parameterNumber":1,"parameterNumberName":"U-component_of_WINDS"},"data":[-4.5762,-4.5918,-4.5878,-4.6036,-4.6026,-4.6128,-4.6152,-4.6177,-4.6187,-4.6303,-4.6362,-4.6337,-4.6331,-4.6392,-4.6454,-4.6441,-4.6473,-4.6557,-4.6529,-4.6187,-4.6137,-4.6089,-4.6051,-4.6563,-4.6564,-4.689,-4.6893,-4.6895,-4.5515,-4.5508,-4.5579,-4.5622,-4.5683,-4.5577,-4.5601,-4.566,-4.5754,-4.5767,-4.5823,-4.5921,-4.5994,-4.5958,-4.6021,-4.6093,-4.6048,-4.6113,-4.611,-4.6111,-4.5743,-4.5703,-4.6149,-4.6149,-4.6149,-4.6148,-4.6148,-4.6148,-4.5055,-4.5149,-4.5151,-4.5228,-4.5238,-4.5267,-4.535,-4.5316,-4.5385,-4.5446,-4.5383,-4.5488,-4.5493,-4.5549,-4.5557,-4.5638,-4.5558,-4.5618,-4.5634,-4.5651,-4.5678,-4.5218,-4.5646,-4.5644,-4.5643,-4.5642,-4.5641,0,-4.4706,-4.4666,-4.4732,-4.4786,-4.484,-4.4878,-4.4905,-4.4955,-4.4855,-4.4917,-4.5002,-4.5045,-4.5129,-4.5205,-4.5254,-4.525,-4.515,-4.5133,-4.5175,-4.5211,-4.5236,-4.5229,-4.4634,-4.5123,-4.5118,-4.5115,-4.5112,-4.511,-4.4243,-4.4357,-4.4338,-4.439,-4.4395,-4.448,-4.4522,-4.4424,-4.4473,-4.4493,-4.4581,-4.4655,-4.471,-4.4854,-4.4814,-4.4877,-4.483,-4.5021,-4.4839,-4.4867,-4.4838,-4.4835,-4.4847,-4.5061,-4.5067,-4.5072,-4.5077,0,-4.3987,-4.3919,-4.4082,-4.4052,-4.4047,-4.4172,-4.4146,-4.4236,-4.4192,-4.4311,-4.4332,-4.4266,-4.4352,-4.428,-4.4363,-4.4324,-4.453,-4.4479,-4.4528,-4.4516,-4.4683,-4.4671,-4.523,-4.53,-4.4763,-4.4768,-4.4773,0,-4.3567,-4.3721,-4.361,-4.3709,-4.3875,-4.3773,-4.3941,-4.392,-4.3922,-4.4014,-4.3885,-4.3975,-4.3868,-4.3947,-4.3888,-4.4043,-4.4057,-4.4038,-4.4022,-4.4053,-4.4056,-4.4082,-4.406,-4.3974,-4.3971,-4.3969,-4.3966,0,-4.3178,-4.3296,-4.3454,-4.3471,-4.3454,-4.3531,-4.3528,-4.3529,-4.3571,-4.3614,-4.3641,-4.3698,-4.3731,-4.3777,-4.3702,-4.3582,-4.3888,-4.3707,-4.3869,-4.3871,-4.3945,-4.3943,-4.4451,-4.3963,-4.3962,-4.3961,-4.396,0,-4.283,-4.2874,-4.3113,-4.3096,-4.3132,-4.3236,-4.3285,-4.3357,-4.3368,-4.3337,-4.337,-4.3277,-4.3403,-4.3229,-4.3403,-4.3268,-4.3308,-4.3299,-4.3309,-4.3321,-4.313,-4.3433,-4.392,-4.3971,-4.3325,-4.332,-4.3315,0,-4.2404,-4.2626,-4.254,-4.2769,-4.2862,-4.2712,-4.2825,-4.2838,-4.2806,-4.288,-4.2844,-4.293,-4.2785,-4.2802,-4.2897,-4.2865,-4.304,-4.2838,-4.2952,-4.2957,-4.2958,-4.3404,-4.3498,-4.382,-4.3246,-4.3254,-4.3259,0,-4.2067,-4.2044,-4.2092,-4.2106,-4.2106,-4.2183,-4.2313,-4.2374,-4.2429,-4.2456,-4.2565,-4.2681,-4.2577,-4.2607,-4.2537,-4.2641,-4.2919,-4.2516,-4.2514,-4.2595,-4.3204,-4.3292,-4.3347,-4.2849,-4.2857,-4.2864,-4.3204,0,-4.1564,-4.1665,-4.1787,-4.1825,-4.1871,-4.201,-4.1933,-4.1992,-4.192,-4.1884,-4.2039,-4.2031,-4.2096,-4.2136,-4.2068,-4.2325,-4.2272,-4.216,-4.199,-4.2281,-4.2392,-4.2437,-4.1831,-4.1825,-4.1821,-4.1817,0,0,-4.1177,-4.132,-4.1222,-4.1344,-4.1378,-4.122,-4.1376,-4.139,-4.1425,-4.1453,-4.1356,-4.1522,-4.1521,-4.1718,-4.1803,-4.1828,-4.1868,-4.177,-4.2142,-4.2179,-4.2212,-4.2332,-4.238,-4.1809,-4.1807,-4.1805,-4.1804,0,-4.0979,-4.0977,-4.1131,-4.1141,-4.1153,-4.1107,-4.1144,-4.1128,-4.1113,-4.1263,-4.1134,-4.1217,-4.1353,-4.1369,-4.1396,-4.1742,-4.1642,-4.1766,-4.198,-4.2098,-4.2141,-4.2178,-4.2305,-4.2351,-4.1793,-4.1793,-4.1794,0,-4.0636,-4.0623,-4.0689,-4.0757,-4.0764,-4.0863,-4.0663,-4.0776,-4.0848,-4.0673,-4.0826,-4.0812,-4.0827,-4.1022,-4.1107,-4.1022,-4.144,-4.1293,-4.132,-4.133,-4.1441,-4.1492,-4.1538,-4.0936,-4.0933,-4.0931,0,0,-4.0475,-4.0568,-4.0525,-4.0708,-4.0722,-4.0655,-4.0699,-4.0632,-4.0648,-4.0656,-4.0636,-4.0657,-4.0734,-4.0787,-4.0856,-4.108,-4.1078,-4.1191,-4.1231,-4.1265,-4.1293,-4.1412,-4.1463,-4.0921,-4.092,-4.092,0,0,-4.0399,-4.0356,-4.0281,-4.0484,-4.0503,-4.0474,-4.059,-4.0497,-4.055,-4.0526,-4.042,-4.0421,-4.0601,-4.0594,-4.0467,-4.0795,-4.0627,-4.0655,-4.0794,-4.0844,-4.0884,-4.0884,-4.0265,0,0,0,0,0,-4.0157,-4.0361,-4.0293,-4.0315,-4.0402,-4.0511,-4.0522,-4.0438,-4.0321,-4.0414,-4.0383,-4.0271,-4.0503,-4.0389,-4.0414,-4.0557,-4.0791,-4.0814,-4.0835,-4.1067,-4.112,-4.1165,0,0,0,0,0,0,-4.0165,-4.0193,-4.0287,-4.0268,-4.0286,-4.0503,-4.0287,-4.0269,-4.0309,-4.0285,-4.028,-4.0271,-4.0202,-4.0371,-4.0394,-4.0532,-4.0257,-4.08,-4.0819,-4.0837,-4.1085,-4.1129,-4.1166,0,0,0,0,0,-4.0171,-4.0194,-4.0354,-4.0264,-4.0281,-4.0217,-4.0278,-4.0262,-4.0291,-4.0243,-4.023,-4.0224,-4.0208,-4.0222,-4.0384,-4.0524,-4.024,-4.0249,-4.0812,-4.0828,-4.0842,-4.1107,0,0,0,0,0,0,-4.0176,-4.018,-4.0356,-4.0357,-4.0181,-4.0204,-4.0204,-4.0256,-4.0245,-4.0234,-4.0181,-4.0163,-4.0215,-4.0225,-4.0236,-4.0526,-4.0226,-4.0235,-4.0241,-4.0824,-4.0836,-4.0847,0,0,0,0,0,0,-4.0167,-4.0183,-4.0357,-4.0256,-4.0246,-4.0191,-4.0192,-4.0317,-4.0247,-4.0183,-4.0167,-4.0173,-4.0198,-4.0228,-4.0236,-4.0434,-4.0216,-4.0224,-4.0231,-4.0234,-4.0834,-4.0843,0,0,0,0,0,0,-4.0172,-4.0185,-4.0255,-4.0247,-4.0237,-4.0251,-4.03,-4.0394,-4.016,-4.0186,-4.0137,-4.0126,-4.0205,-4.0211,-4.0237,-4.0433,-4.0434,-4.0216,-4.0222,-4.0226,-4.0229,0,0,0,0,0,0,0,-4.0176,-4.0108,-4.0345,-4.024,-4.0231,-4.0374,-4.0375,-4.0375,-4.0158,-4.0148,-4.0139,-4.0131,-4.0165,-4.0175,-4.0185,-4.0431,0,0,-4.0215,-4.0219,0,0,0,0,0,0,0,0,-4.01,-4.0106,-4.0345,-4.0345,-4.0346,-4.0374,-4.0375,-4.0375,-4.0156,-4.0149,-4.0141,-4.0134,-4.0168,-4.0176,-4.0184,0,0,0,0,0,0,0,0,0,0,0,0,0,0,0,-4.0345,-4.0345,0,-4.0374,-4.0375,-4.0375,-4.0155,-4.0149,-4.0143,-4.0137,-4.017,-4.0176,-4.0183,0,0,0,0,0,0,0,0,0,0,0,0,0,0,0,0,0,0,0,0,0,0,0,0,0,0,0,0,0,0,0,0,0,0,0,0,0,0,0,0,0,0,0,0,0,0,0,0,0,0,0,0,0,0,0,0,0,0,0,0,0,0,0,0,0,0,0,0,0]}],[{"header":{"parameterUnit":"kt","parameterCategory":2,"dx":1,"dy":1,"la1":30.253999710083008,"la2":30.299108505249023,"lo1":-89.0895004272461,"lo2":-89.04439544677734,"nx":28,"ny":28,"refTime":"2022-10-08T21:00:00:Z","depth":0,"parameterNumber":2,"parameterNumberName":"V-component_of_WINDS"},"data":[-8.8962,-8.9165,-8.9181,-8.9418,-8.9472,-8.9636,-8.9699,-8.9782,-8.985,-9.0045,-9.0159,-9.0193,-9.0264,-9.0402,-9.0524,-9.0535,-9.0586,-9.0647,-9.065,-9.0364,-9.0326,-9.0289,-9.0242,-9.0658,-9.0659,-9.0943,-9.0946,-9.0948,-8.875,-8.8806,-8.8937,-8.9074,-8.9185,-8.9135,-8.9238,-8.9334,-8.9481,-8.9567,-8.968,-8.9852,-8.9988,-9.004,-9.0172,-9.0265,-9.0247,-9.0299,-9.0293,-9.0304,-9.0,-8.9951,-9.0311,-9.0311,-9.0311,-9.0311,-9.0311,-9.0311,-8.8369,-8.8491,-8.8582,-8.8724,-8.8797,-8.8887,-8.9005,-8.9044,-8.917,-8.9313,-8.9304,-8.9469,-8.9556,-8.9721,-8.9779,-8.9907,-8.9851,-8.9912,-8.9927,-8.9942,-8.9957,-8.9544,-8.993,-8.9929,-8.9928,-8.9927,-8.9926,0,-8.8094,-8.8099,-8.8226,-8.8357,-8.8461,-8.8563,-8.8659,-8.8731,-8.8742,-8.8845,-8.8996,-8.9084,-8.9257,-8.9398,-8.9525,-8.9573,-8.9528,-8.9525,-8.9567,-8.9574,-8.9565,-8.9572,-8.9075,-8.9514,-8.951,-8.9508,-8.9506,-8.9504,-8.7711,-8.7851,-8.7954,-8.804,-8.8097,-8.8236,-8.8322,-8.8321,-8.8411,-8.8527,-8.8633,-8.8774,-8.8888,-8.9124,-8.9164,-8.9293,-8.9272,-8.9439,-8.9291,-8.9293,-8.9275,-8.9267,-8.928,-8.9467,-8.9472,-8.9476,-8.9479,0,-8.7493,-8.7517,-8.7738,-8.7825,-8.7851,-8.7997,-8.807,-8.819,-8.8214,-8.8382,-8.8421,-8.8458,-8.8604,-8.8618,-8.8787,-8.879,-8.9027,-8.9003,-8.8997,-8.8993,-8.9143,-8.9128,-8.9629,-8.9694,-8.9263,-8.9267,-8.927,0,-8.7174,-8.7358,-8.7382,-8.751,-8.7713,-8.7708,-8.7908,-8.7949,-8.8025,-8.8157,-8.811,-8.8234,-8.8233,-8.8359,-8.8363,-8.8559,-8.859,-8.8604,-8.8603,-8.8608,-8.8607,-8.8655,-8.8635,-8.8595,-8.8592,-8.859,-8.8588,0,-8.6831,-8.7059,-8.7266,-8.7322,-8.7433,-8.7529,-8.7579,-8.7663,-8.7747,-8.7857,-8.791,-8.8038,-8.8108,-8.8206,-8.8211,-8.811,-8.845,-8.8313,-8.8464,-8.8464,-8.8538,-8.8534,-8.8973,-8.8585,-8.8584,-8.8583,-8.8582,0,-8.6577,-8.6692,-8.6989,-8.7079,-8.7139,-8.7275,-8.7401,-8.7521,-8.7613,-8.7625,-8.7711,-8.7681,-8.7854,-8.7716,-8.7954,-8.7822,-8.7893,-8.7921,-8.7932,-8.7948,-8.7794,-8.804,-8.8457,-8.8501,-8.7963,-8.7958,-8.7953,0,-8.6177,-8.6484,-8.6482,-8.6763,-8.6906,-8.6845,-8.6995,-8.7078,-8.7107,-8.723,-8.726,-8.7401,-8.7302,-8.7347,-8.7463,-8.7499,-8.7671,-8.7476,-8.7651,-8.7658,-8.7629,-8.8014,-8.8072,-8.8364,-8.7887,-8.7894,-8.7899,0,-8.587,-8.6005,-8.6056,-8.6118,-8.623,-8.6349,-8.6522,-8.6661,-8.6743,-8.6842,-8.6986,-8.7183,-8.7116,-8.7192,-8.7181,-8.7301,-8.7554,-8.7212,-8.7214,-8.7273,-8.7855,-8.791,-8.7959,-8.752,-8.7528,-8.7534,-8.7847,0,-8.5481,-8.5637,-8.5775,-8.5915,-8.601,-8.6187,-8.6204,-8.6301,-8.6281,-8.6307,-8.6518,-8.6589,-8.6729,-8.6788,-8.677,-8.704,-8.6997,-8.6924,-8.679,-8.7043,-8.7146,-8.7188,-8.6635,-8.6631,-8.6628,-8.6625,0,0,-8.5092,-8.5316,-8.5309,-8.5478,-8.5557,-8.549,-8.5678,-8.5747,-8.5888,-8.5943,-8.5869,-8.6158,-8.622,-8.6474,-8.6554,-8.6611,-8.666,-8.6571,-8.6922,-8.6956,-8.6986,-8.7097,-8.714,-8.662,-8.6618,-8.6617,-8.6616,0,-8.4953,-8.5021,-8.5208,-8.528,-8.5386,-8.5405,-8.5449,-8.5542,-8.5567,-8.5775,-8.5715,-8.5843,-8.6075,-8.6147,-8.6214,-8.6541,-8.6488,-8.6582,-8.6753,-8.6889,-8.6927,-8.696,-8.7076,-8.7118,-8.6608,-8.6609,-8.6609,0,-8.4654,-8.4723,-8.4816,-8.4994,-8.5062,-8.5211,-8.5076,-8.5239,-8.5348,-8.5265,-8.5472,-8.5513,-8.5611,-8.585,-8.5958,-8.5893,-8.6331,-8.6196,-8.6216,-8.6228,-8.6361,-8.6406,-8.6446,-8.5919,-8.5916,-8.5914,0,0,-8.4531,-8.4677,-8.475,-8.4966,-8.5013,-8.5044,-8.5124,-8.5113,-8.5204,-8.5241,-8.5294,-8.5383,-8.5517,-8.5605,-8.5732,-8.5992,-8.6011,-8.611,-8.6143,-8.6169,-8.6196,-8.6335,-8.638,-8.5905,-8.5905,-8.5904,0,0,-8.4472,-8.4566,-8.4531,-8.4784,-8.4874,-8.4959,-8.5089,-8.5047,-8.5163,-8.5144,-8.5131,-8.5154,-8.5377,-8.5421,-8.5295,-8.5684,-8.5552,-8.5583,-8.5648,-8.569,-8.5722,-8.5706,-8.5165,0,0,0,0,0,-8.4339,-8.4554,-8.4522,-8.4567,-8.4791,-8.4977,-8.5005,-8.5001,-8.4907,-8.5011,-8.5048,-8.4986,-8.535,-8.5238,-8.5281,-8.5422,-8.5785,-8.5806,-8.5826,-8.5972,-8.6015,-8.6051,0,0,0,0,0,0,-8.4357,-8.4412,-8.4516,-8.461,-8.4661,-8.4969,-8.481,-8.4815,-8.4896,-8.4882,-8.4981,-8.4989,-8.4987,-8.5215,-8.5254,-8.5388,-8.5151,-8.5793,-8.5811,-8.5828,-8.5987,-8.6022,-8.6052,0,0,0,0,0,-8.4371,-8.4415,-8.4778,-8.4607,-8.4651,-8.4696,-8.4802,-8.4805,-8.4867,-8.4926,-8.4932,-8.4857,-8.4991,-8.5024,-8.5238,-8.537,-8.5124,-8.5139,-8.5805,-8.5819,-8.5832,-8.6004,0,0,0,0,0,0,-8.4381,-8.4418,-8.4786,-8.4799,-8.4526,-8.4679,-8.4703,-8.4796,-8.4905,-8.4914,-8.48,-8.4787,-8.4997,-8.5021,-8.5046,-8.5365,-8.5102,-8.5117,-8.5126,-8.5816,-8.5827,-8.5837,0,0,0,0,0,0,-8.4394,-8.443,-8.4793,-8.4691,-8.4692,-8.4663,-8.4684,-8.4865,-8.4908,-8.4773,-8.4766,-8.4793,-8.4957,-8.502,-8.5039,-8.5322,-8.5085,-8.5099,-8.5109,-8.5115,-8.5825,-8.5834,0,0,0,0,0,0,-8.4409,-8.444,-8.4687,-8.4688,-8.4689,-8.4835,-8.4822,-8.5052,-8.4822,-8.4769,-8.4801,-8.4792,-8.4958,-8.4978,-8.5035,-8.531,-8.5319,-8.5085,-8.5095,-8.5102,-8.5106,0,0,0,0,0,0,0,-8.4421,-8.4218,-8.4709,-8.4686,-8.4686,-8.492,-8.4923,-8.4927,-8.482,-8.4812,-8.4803,-8.4796,-8.5003,-8.5019,-8.5034,-8.5301,0,0,-8.5084,-8.5091,0,0,0,0,0,0,0,0,-8.4205,-8.4215,-8.4709,-8.4712,-8.4715,-8.492,-8.4923,-8.4926,-8.4819,-8.4812,-8.4805,-8.4799,-8.5007,-8.502,-8.5033,0,0,0,0,0,0,0,0,0,0,0,0,0,0,0,-8.471,-8.4712,0,-8.4921,-8.4923,-8.4926,-8.4818,-8.4812,-8.4807,-8.4801,-8.5011,-8.5021,-8.5032,0,0,0,0,0,0,0,0,0,0,0,0,0,0,0,0,0,0,0,0,0,0,0,0,0,0,0,0,0,0,0,0,0,0,0,0,0,0,0,0,0,0,0,0,0,0,0,0,0,0,0,0,0,0,0,0,0,0,0,0,0,0,0,0,0,0,0,0,0]}]]]